Showing default

GALILEO 5 (261), 40128

Orbit data source: Space-Track

GALILEO 5 (261), 40128 is a payload satellite owned by GNSS Agency (ESA) in MEO that was launched on Fri, 22 Aug 2014 UTC via a SOYUZ-ST-B launch vehicle from the French Guiana (FRGUI). Payload-class satellites include a variety of spacecraft equipped with specific instruments for various scientific and technological missions. These include communications satellites like Starlink; space stations such as the ISS; scientific satellites like the Hubble; Earth observation satellites from companies like Planet Labs, Umbra, and HawkEye 360; GPS; miniature CubeSats for education and research; and military/defense satellites.

Loading next visibility...
Identifier
40128, 2014-050A
Orbit
MEO
Country
Flag of ESAESA
Related business
Manufacturer
OHB
Mission
On reserve Civil Navigation
Bus & Motor
GALILEOSAT, AOCS
Mass
733 kg wet, 700 kg dry
Launch date (UTC)
2014-08-22 (12 years ago)
Launch vehicle
SOYUZ-ST-B
Launch site
French Guiana (FRGUI)
Object type
Payload
Rocket body
Debris
Shape & HBR
Box + 2 Pan, 7.3 m
Radar Cross Section
9.223 m², Large (>1 m²)

Expand to show TLE details & history
Last TLE update: 1 day ago

TLE from 1 day ago
0 GALILEO 5 (261)
1 40128U 14050A   26167.33896520 -.00000044  00000-0  00000-0 0  9992
2 40128  48.8765 273.4713 1674588 179.3614 180.9380  1.85519940 78301
Epoch: 2026-06-16T08:08Z
TLE epoch observation values (Epoch: 2026-06-16T08:08:06.593Z)
Latitude
0.00006°
Longitude
-113.17759°
Altitude
26,291.642 km
Speed
3.187 km/s
True Right ascension
18h 13m 50s
True Declination
0° 00' 00"
Sunlit
Object was in daylight at epoch
Visualization orbit readout
Latitude
Unknown
Longitude
Unknown
Altitude
Unknown
Speed
Unknown
Apparent Right ascension
Unknown
Apparent Declination
Unknown
Sunlit
N/A
Visualization observer readout
Local Sidereal Time
19:27:16
Azimuth
Unknown
Elevation
Unknown
Doppler factor
Unknown
Orbital elements
Apogee altitude
26,284.687 km
Perigee altitude
16,914.46 km
Semi-major axis
27,977.711 km
Eccentricity
0.16746
Inclination
48.8765°
RAAN
273.4713°
Arg. of periapsis
179.3614°
True anomaly
180.6785°
Mean anomaly
180.938°
Eccentric anomaly
180.80346°
Mean motion
0.46379 °/min
Orbital period
776.21 mins
BSTAR
0
Loading maneuver chart data...
Computing Atmospheric mass density...
Loading historical data...
Loading historical data...
Loading historical data...
Loading historical data...
Loading historical data...
Loading historical data...
Loading historical data...
Other satellites on launch #50 in the year 2014 (2014-08-22 UTC)

Documentation

Showing up to 5 results
|